Location: Marcé
(47.5801°N, 0.3280°W)
Time: 14:51:07
(UTC+01:00)

Tiros 1 despin weight - Pass Details

Date: 11 December 2021
Orbit: 592 x 641 km, 48.2° (Epoch: 19 January)

Event Time Altitude Azimuth Distance (km) Brightness Sun altitude
Rises 09:48:54 0° 184° (S) 2,865 ? 8.0°
Reaches altitude 10° 09:53:31 10° 141° (SE) 1,950 ? 8.5°
Maximum altitude 09:54:02 10° 134° (SE) 1,938 ? 8.6°
Drops below altitude 10° 09:54:33 10° 127° (SE) 1,948 ? 8.6°
Sets 09:59:08 0° 84° (E) 2,844 ? 9.1°
